FW3866 Weather Reports


time (UTC)temp
C
wind
direction
speed
KPH
gust
KPH
rain 1hr
cm
rain 24hr
cm
rain mn
cm
humidity
%
barometer
mb
20260504070152 10 264 12.9 17.7 0.00 0.00 0.00 75 1004.1
20260504060150 12 240 19.3 24.1 0.00 0.00 0.00 65 1004.6
20260504050649 13 217 25.7 30.6 0.00 0.00 0.00 59 1004.8
20260504050148 12 216 20.9 27.4 0.00 0.00 0.00 59 1005.0
20260504045150 12 210 19.3 22.5 0.00 0.00 0.00 61 1005.2
20260504044649 11 203 19.3 22.5 0.00 0.00 0.00 62 1005.2
20260504044148 11 216 17.7 20.9 0.00 0.00 0.00 63 1005.4
20260504043649 11 212 16.1 22.5 0.00 0.00 0.00 62 1005.4
20260504043147 11 213 17.7 22.5 0.00 0.00 0.00 62 1005.4
20260504042147 11 209 17.7 25.7 0.00 0.00 0.00 60 1005.6
20260504041647 12 214 20.9 27.4 0.00 0.00 0.00 60 1005.5
20260504041148 11 209 22.5 27.4 0.00 0.00 0.00 60 1005.4
20260504040648 11 207 19.3 20.9 0.00 0.00 0.00 60 1005.6
20260504040147 11 209 14.5 20.9 0.00 0.00 0.00 59 1005.6
20260504035648 11 209 17.7 20.9 0.00 0.00 0.00 59 1005.7
20260504035146 11 202 16.1 19.3 0.00 0.00 0.00 60 1005.6
20260504034147 11 203 14.5 20.9 0.00 0.00 0.00 60 1005.8
20260504033646 12 202 14.5 20.9 0.00 0.00 0.00 59 1005.8
20260504033147 12 202 17.7 20.9 0.00 0.00 0.00 59 1005.9
20260504032645 11 209 16.1 20.9 0.00 0.00 0.00 59 1005.9
20260504032147 11 196 11.3 14.5 0.00 0.00 0.00 60 1005.9
20260504031647 11 0.0 16.1 0.00 0.00 0.00 62 1005.9
20260504031145 11 197 12.9 16.1 0.00 0.00 0.00 62 1006.1
20260504030646 11 197 9.7 14.5 0.00 0.00 0.00 63 1006.2
20260504030145 11 197 9.7 14.5 0.00 0.00 0.00 63 1006.2
20260504025646 11 196 8.0 16.1 0.00 0.00 0.00 64 1006.4
20260504025145 10 195 9.7 16.1 0.00 0.00 0.00 64 1006.4
20260504024646 10 192 9.7 14.5 0.00 0.00 0.00 65 1006.5
20260504024146 10 193 9.7 14.5 0.00 0.00 0.00 64 1006.6
20260504023646 10 195 8.0 11.3 0.00 0.00 0.00 64 1006.7
20260504023144 10 190 9.7 14.5 0.00 0.00 0.00 63 1006.8
20260504022644 10 199 11.3 16.1 0.00 0.00 0.00 62 1006.8
20260504021644 11 200 12.9 14.5 0.00 0.00 0.00 61 1006.8
20260504021146 11 199 11.3 16.1 0.00 0.00 0.00 61 1006.8
20260504020644 11 199 12.9 17.7 0.00 0.00 0.00 60 1006.9
20260504020144 11 204 16.1 17.7 0.00 0.00 0.00 59 1006.9
20260504015643 11 203 14.5 16.1 0.00 0.00 0.00 57 1007.0
20260504015145 12 209 14.5 16.1 0.00 0.00 0.00 54 1007.0
20260504014143 13 221 11.3 14.5 0.00 0.00 0.00 51 1007.3
20260504013644 14 224 9.7 11.3 0.00 0.00 0.00 48 1007.4
20260504012644 15 224 9.7 14.5 0.00 0.00 0.00 45 1007.5
20260504012142 16 240 11.3 14.5 0.00 0.00 0.00 45 1007.7
20260504011643 16 248 9.7 11.3 0.00 0.00 0.00 44 1007.6
20260504011143 17 248 9.7 16.1 0.00 0.00 0.00 43 1007.8
20260504010642 17 261 11.3 17.7 0.00 0.00 0.00 41 1007.9
20260504010144 18 262 12.9 17.7 0.00 0.00 0.00 39 1008.0
20260504005642 18 255 14.5 17.7 0.00 0.00 0.00 38 1007.9
20260504005142 19 257 14.5 22.5 0.00 0.00 0.00 38 1008.0
20260504004143 20 268 16.1 24.1 0.00 0.00 0.00 35 1008.3
20260504002643 20 255 17.7 25.7 0.00 0.00 0.00 35 1008.4
20260504002143 20 259 17.7 30.6 0.00 0.00 0.00 34 1008.5
20260504001641 20 245 20.9 30.6 0.00 0.00 0.00 34 1008.6
20260504001143 20 255 20.9 30.6 0.00 0.00 0.00 35 1008.7
20260504000641 20 281 14.5 30.6 0.00 0.00 0.00 35 1008.7
20260503235641 20 247 24.1 32.2 0.00 0.00 0.00 34 1008.8
20260503235143 20 258 24.1 32.2 0.00 0.00 0.00 33 1009.0
20260503234641 21 262 19.3 27.4 0.00 0.00 0.00 32 1009.1
20260503234141 21 272 22.5 38.6 0.00 0.00 0.00 31 1009.1
20260503233641 21 290 27.4 38.6 0.00 0.00 0.00 31 1009.3
20260503233140 21 303 17.7 30.6 0.00 0.00 0.00 33 1009.3
20260503232641 21 282 20.9 33.8 0.00 0.00 0.00 30 1009.4
20260503232140 21 286 22.5 33.8 0.00 0.00 0.00 31 1009.4
20260503231140 21 257 27.4 33.8 0.00 0.00 0.00 32 1009.5
20260503230641 21 262 20.9 35.4 0.00 0.00 0.00 31 1009.4
20260503230140 21 264 14.5 35.4 0.00 0.00 0.00 30 1009.6
20260503225141 21 240 24.1 30.6 0.00 0.00 0.00 31 1009.5
20260503224640 21 282 17.7 32.2 0.00 0.00 0.00 32 1009.7
20260503224139 21 281 22.5 32.2 0.00 0.00 0.00 31 1009.8
20260503223640 21 319 24.1 32.2 0.00 0.00 0.00 30 1009.8
20260503223140 21 286 22.5 30.6 0.00 0.00 0.00 30 1010.0
20260503222638 21 264 19.3 30.6 0.00 0.00 0.00 28 1009.9
20260503222139 21 300 24.1 30.6 0.00 0.00 0.00 29 1010.0
20260503221639 21 317 19.3 30.6 0.00 0.00 0.00 28 1010.3
20260503221139 21 269 17.7 29.0 0.00 0.00 0.00 29 1010.1
20260503220639 21 312 16.1 29.0 0.00 0.00 0.00 28 1010.4
20260503220140 21 275 17.7 29.0 0.00 0.00 0.00 28 1010.6
20260503215639 21 288 22.5 29.0 0.00 0.00 0.00 28 1010.6
20260503215137 21 264 20.9 29.0 0.00 0.00 0.00 27 1010.4
20260503214639 21 293 12.9 29.0 0.00 0.00 0.00 28 1010.8
20260503214137 21 288 19.3 32.2 0.00 0.00 0.00 29 1011.0
20260503213638 21 310 17.7 32.2 0.00 0.00 0.00 30 1011.0
20260503213138 21 303 16.1 25.7 0.00 0.00 0.00 30 1011.0
20260503212637 21 285 12.9 25.7 0.00 0.00 0.00 27 1011.0
20260503212139 20 310 9.7 29.0 0.00 0.00 0.00 29 1011.1
20260503211638 21 238 19.3 29.0 0.00 0.00 0.00 26 1011.3
20260503211138 21 266 19.3 27.4 0.00 0.00 0.00 30 1011.3
20260503210637 21 252 11.3 24.1 0.00 0.00 0.00 26 1011.4
20260503210137 21 295 4.8 30.6 0.00 0.00 0.00 25 1011.5
20260503205636 21 299 16.1 32.2 0.00 0.00 0.00 26 1011.7
20260503204636 21 317 20.9 32.2 0.00 0.00 0.00 26 1011.8
20260503204136 21 340 3.2 25.7 0.00 0.00 0.00 28 1011.9
20260503203637 21 313 17.7 25.7 0.00 0.00 0.00 28 1012.0
20260503203136 20 279 12.9 24.1 0.00 0.00 0.00 27 1012.0
20260503202637 20 306 11.3 27.4 0.00 0.00 0.00 26 1012.3
20260503201635 20 321 3.2 22.5 0.00 0.00 0.00 22 1012.3
20260503200635 20 262 14.5 29.0 0.00 0.00 0.00 23 1012.5
20260503200136 20 320 16.1 32.2 0.00 0.00 0.00 24 1012.7
20260503195136 20 341 14.5 22.5 0.00 0.00 0.00 24 1012.7
20260503194634 20 314 8.0 20.9 0.00 0.00 0.00 25 1012.7
20260503194133 20 288 12.9 29.0 0.00 0.00 0.00 26 1012.9
20260503193635 20 0 14.5 29.0 0.00 0.00 0.00 23 1012.8
20260503193135 20 0 11.3 25.7 0.00 0.00 0.00 25 1013.0
20260503192635 20 306 11.3 27.4 0.00 0.00 0.00 23 1012.9
20260503192135 20 293 16.1 27.4 0.00 0.00 0.00 24 1013.1
20260503191635 20 313 12.9 27.4 0.00 0.00 0.00 23 1013.2
20260503191134 20 321 14.5 30.6 0.00 0.00 0.00 23 1013.3
20260503190634 20 323 20.9 32.2 0.00 0.00 0.00 25 1013.3
20260503190135 20 353 17.7 32.2 0.00 0.00 0.00 24 1013.5
20260503185633 20 28 11.3 24.1 0.00 0.00 0.00 22 1013.4
20260503185134 19 321 8.0 25.7 0.00 0.00 0.00 23 1013.6
20260503184634 20 312 20.9 25.7 0.00 0.00 0.00 25 1013.6
20260503183134 19 329 14.5 27.4 0.00 0.00 0.00 25 1013.8
20260503182133 19 283 19.3 24.1 0.00 0.00 0.00 27 1013.8
20260503181633 19 336 9.7 30.6 0.00 0.00 0.00 22 1013.9
20260503181132 19 355 24.1 30.6 0.00 0.00 0.00 26 1014.0
20260503180633 19 289 16.1 27.4 0.00 0.00 0.00 27 1014.3
20260503180132 18 343 12.9 27.4 0.00 0.00 0.00 25 1014.3
20260503175634 18 317 19.3 27.4 0.00 0.00 0.00 28 1014.4
20260503175132 18 323 20.9 27.4 0.00 0.00 0.00 27 1014.5
20260503174632 18 355 12.9 24.1 0.00 0.00 0.00 29 1014.4
20260503174133 18 348 11.3 20.9 0.00 0.00 0.00 25 1014.3
20260503173631 18 327 14.5 29.0 0.00 0.00 0.00 25 1014.7
20260503173132 18 17 20.9 29.0 0.00 0.00 0.00 26 1014.7
20260503172631 18 1 16.1 33.8 0.00 0.00 0.00 24 1014.9
20260503172131 18 343 22.5 33.8 0.00 0.00 0.00 27 1014.8
20260503171132 18 309 24.1 32.2 0.00 0.00 0.00 33 1014.9
20260503170632 18 310 19.3 29.0 0.00 0.00 0.00 32 1014.8
20260503160129 17 341 11.3 25.7 0.00 0.00 0.00 46 1015.3
20260503150627 14 226 1.6 6.4 0.00 0.00 0.00 60 1015.5
20260503150129 13 226 4.8 6.4 0.00 0.00 0.00 62 1015.7
20260503140127 10 309 6.4 8.0 0.00 0.00 0.00 73 1016.1
20260503131125 7 240 11.3 17.7 0.00 0.00 0.00 83 1015.8
20260503130625 7 230 12.9 16.1 0.00 0.00 0.00 86 1015.7
20260503130124 6 247 9.7 14.5 0.00 0.00 0.00 89 1015.7
20260503120123 3 313 3.2 3.2 0.00 0.00 0.00 89 1015.0
20260503110623 3 317 6.4 8.0 0.00 0.00 0.00 85 1014.8
20260503110122 3 319 6.4 9.7 0.00 0.00 0.00 85 1014.9
20260503100123 4 302 4.8 6.4 0.00 0.00 0.00 83 1014.5
20260503090120 6 313 0.0 4.8 0.00 0.00 0.00 79 1014.4
20260503081617 5 353 9.7 14.5 0.00 0.00 0.00 84 1013.8
20260503081118 3 353 9.7 14.5 0.00 0.00 0.00 82 1013.7
20260503080119 3 338 6.4 8.0 0.00 0.00 0.00 81 1013.6
20260503070616 7 327 8.0 9.7 0.00 0.00 0.00 69 1013.7